E8220 Weather Reports


time (UTC)temp
F
wind
direction
speed
knots
gust
knots
rain 1hr
in
rain 24hr
in
rain mn
in
humidity
%
barometer
mb
20260503190831 76 0.0 0.0 0.00 0.01 0.00 54 1014.1
20260503180648 71 0.0 0.0 0.00 0.01 0.00 61 1014.7
20260503150251 56 0.0 0.0 0.00 0.01 0.00 83 1015.8
20260503120132 48 0.0 0.0 0.00 0.01 0.00 94 1015.5
20260503110302 49 0.0 0.0 0.00 0.01 0.00 93 1015.6
20260503080558 53 0.0 0.0 0.00 0.01 0.00 88 1015.7
20260503053558 58 0.0 0.0 0.00 0.01 0.01 72 1015.4
20260503043515 61 0.0 0.0 0.00 0.01 0.01 67 1015.0
20260503040522 62 0.0 0.0 0.00 0.01 0.01 66 1014.7
20260503030601 65 0.0 0.0 0.00 0.01 0.01 62 1014.0
20260503020244 68 0.0 0.0 0.00 0.01 0.01 60 1013.7
20260503013209 69 0.0 0.0 0.00 0.01 0.01 60 1013.9
20260503010231 70 0.0 0.0 0.00 0.01 0.01 59 1013.9
20260503003113 70 0.0 0.0 0.00 0.01 0.01 59 1014.0
20260502232859 73 0.0 0.0 0.00 0.01 0.01 61 1014.5
20260502230011 72 0.0 0.0 0.00 0.01 0.01 59 1015.0
20260502223059 72 0.0 0.0 0.00 0.01 0.01 61 1015.2
20260502215933 72 0.0 0.0 0.00 0.01 0.01 60 1015.7
20260502212759 72 0.0 0.0 0.00 0.01 0.01 60 1016.0
20260502205848 73 0.0 0.0 0.00 0.01 0.01 61 1016.3
20260502202736 71 0.0 0.0 0.00 0.01 0.01 64 1016.6